Williams, AZ

9:21 PM MST on April 25, 2018 (GMT -0700)
Williams

Weather History for KCMR - August, 2013

Change the Weather History Date:

Friday, August 9, 2013

  Actual Average (K40G) Record (K40G)
Temperature  
Mean Temperature 64 °F -  
Max Temperature 80 °F 84 °F 103 °F (1996)
Min Temperature 48 °F 74 °F 66 °F (1996)
Degree Days  
Heating Degree Days 1    
Growing Degree Days 14 (Base 50)    
Moisture  
Dew Point 31 °F    
Average Humidity 30    
Maximum Humidity 54    
Minimum Humidity 15    
Precipitation  
Precipitation 0.00 in - - ()
Sea Level Pressure  
Sea Level Pressure 30.31 in    
Wind  
Wind Speed 9 mph (South)    
Max Wind Speed 18 mph    
Max Gust Speed 30 mph    
Visibility 10 miles    
Events      
Averages and records for this station are not official NWS values.
T = Trace of Precipitation, MM = Missing Value Source: NWS Daily Summary

Daily Weather History Graph

Daily Weather History Graph

Search for Another Location

Airport or City:

Astronomy

Aug. 09, 2013 Rise Set
Actual Time 5:43 AM MST 7:23 PM MST
Civil Twilight 5:16 AM MST 7:51 PM MST
Nautical Twilight 4:43 AM MST 8:24 PM MST
Astronomical Twilight 4:08 AM MST 8:58 PM MST
Moon 8:25 AM MST (8/9) 8:45 PM MST (8/9)
Length of Visible Light 14h 34m
Length of Day
13h 39m
Waxing Crescent, 8% of the Moon is Illuminated
Aug 9
Waxing Crescent
Aug 14
First Quarter
Aug 20
Full
Aug 28
Last Quarter
Sep 5
New

Hourly Weather History & Observations

Time (MST) Temp. Dew Point Humidity Pressure Visibility Wind Dir Wind Speed Gust Speed Precip Events Conditions
12:15 AM 55.4 °F 32.0 °F 41% 30.30 in 10.0 mi SE 6.9 mph - N/A   Clear
12:35 AM 55.4 °F 32.0 °F 41% 30.30 in 10.0 mi SSE 5.8 mph - N/A   Clear
12:55 AM 55.4 °F 32.0 °F 41% 30.30 in 10.0 mi SSE 6.9 mph - N/A   Clear
1:15 AM 55.4 °F 32.0 °F 41% 30.30 in 10.0 mi SE 6.9 mph - N/A   Clear
1:35 AM 53.6 °F 32.0 °F 44% 30.29 in 10.0 mi SSE 8.1 mph - N/A   Clear
1:55 AM 53.6 °F 32.0 °F 44% 30.29 in 10.0 mi SSE 8.1 mph - N/A   Clear
2:15 AM 53.6 °F 32.0 °F 44% 30.29 in 10.0 mi SSE 9.2 mph - N/A   Clear
2:35 AM 53.6 °F 32.0 °F 44% 30.29 in 10.0 mi SSE 9.2 mph - N/A   Clear
2:55 AM 53.6 °F 32.0 °F 44% 30.28 in 10.0 mi SSE 9.2 mph - N/A   Clear
3:15 AM 53.6 °F 32.0 °F 44% 30.28 in 10.0 mi SSE 11.5 mph - N/A   Clear
3:35 AM 50.0 °F 32.0 °F 50% 30.28 in 10.0 mi SSE 11.5 mph - N/A   Clear
3:55 AM 50.0 °F 32.0 °F 50% 30.28 in 10.0 mi SSE 10.4 mph - N/A   Clear
4:15 AM 50.0 °F 32.0 °F 50% 30.28 in 10.0 mi SSE 9.2 mph - N/A   Clear
4:35 AM 48.2 °F 32.0 °F 54% 30.28 in 10.0 mi SSE 9.2 mph - N/A   Clear
4:55 AM 48.2 °F 32.0 °F 54% 30.29 in 10.0 mi SSE 10.4 mph - N/A   Clear
5:15 AM 50.0 °F 32.0 °F 50% 30.29 in 10.0 mi SSE 10.4 mph - N/A   Clear
5:35 AM 50.0 °F 32.0 °F 50% 30.29 in 10.0 mi SSE 9.2 mph - N/A   Clear
5:55 AM 48.2 °F 32.0 °F 54% 30.30 in 10.0 mi SSE 10.4 mph - N/A   Clear
6:15 AM 50.0 °F 32.0 °F 50% 30.30 in 10.0 mi SSE 10.4 mph - N/A   Clear
6:35 AM 51.8 °F 32.0 °F 47% 30.31 in 10.0 mi SSE 9.2 mph - N/A   Clear
6:55 AM 55.4 °F 32.0 °F 41% 30.32 in 10.0 mi SSE 9.2 mph - N/A   Clear
7:15 AM 57.2 °F 33.8 °F 41% 30.32 in 10.0 mi SSE 8.1 mph - N/A   Clear
7:35 AM 60.8 °F 35.6 °F 39% 30.32 in 10.0 mi SSE 8.1 mph - N/A   Clear
7:55 AM 66.2 °F 32.0 °F 28% 30.33 in 10.0 mi SE 9.2 mph - N/A   Clear
8:15 AM 68.0 °F 35.6 °F 30% 30.33 in 10.0 mi SE 5.8 mph - N/A   Clear
8:35 AM 69.8 °F 32.0 °F 25% 30.33 in 10.0 mi SE 4.6 mph - N/A   Clear
8:55 AM 71.6 °F 32.0 °F 23% 30.33 in 10.0 mi SE 6.9 mph - N/A   Clear
9:15 AM 73.4 °F 30.2 °F 20% 30.33 in 10.0 mi SSE 10.4 mph - N/A   Clear
9:35 AM 73.4 °F 30.2 °F 20% 30.33 in 10.0 mi SSE 9.2 mph - N/A   Clear
9:55 AM 73.4 °F 30.2 °F 20% 30.34 in 10.0 mi South 13.8 mph 19.6 mph N/A   Clear
10:15 AM 75.2 °F 26.6 °F 17% 30.34 in 10.0 mi South 11.5 mph 20.7 mph N/A   Clear
10:35 AM 75.2 °F 24.8 °F 15% 30.34 in 10.0 mi SSW 12.7 mph - N/A   Clear
10:55 AM 75.2 °F 26.6 °F 17% 30.34 in 10.0 mi SW 15.0 mph 21.9 mph N/A   Clear
11:15 AM 75.2 °F 26.6 °F 17% 30.34 in 10.0 mi SW 17.3 mph 24.2 mph N/A   Clear
11:35 AM 77.0 °F 26.6 °F 16% 30.34 in 10.0 mi South 17.3 mph 23.0 mph N/A   Clear
11:55 AM 75.2 °F 28.4 °F 18% 30.33 in 10.0 mi SSW 10.4 mph 23.0 mph N/A   Clear
12:15 PM 77.0 °F 28.4 °F 17% 30.33 in 10.0 mi SSW 12.7 mph 18.4 mph N/A   Clear
12:35 PM 77.0 °F 28.4 °F 17% 30.32 in 10.0 mi South 11.5 mph 19.6 mph N/A   Clear
12:55 PM 78.8 °F 30.2 °F 17% 30.32 in 10.0 mi South 16.1 mph 25.3 mph N/A   Clear
1:15 PM 78.8 °F 30.2 °F 17% 30.32 in 10.0 mi SSE 15.0 mph 20.7 mph N/A   Partly Cloudy
1:35 PM 78.8 °F 30.2 °F 17% 30.32 in 10.0 mi South 15.0 mph 23.0 mph N/A   Partly Cloudy
1:55 PM 78.8 °F 30.2 °F 17% 30.31 in 10.0 mi South 15.0 mph 29.9 mph N/A   Scattered Clouds
2:15 PM 77.0 °F 28.4 °F 17% 30.31 in 10.0 mi SSE 10.4 mph 16.1 mph N/A   Scattered Clouds
2:35 PM 77.0 °F 30.2 °F 18% 30.30 in 10.0 mi SE 17.3 mph 24.2 mph N/A   Scattered Clouds
2:55 PM 78.8 °F 28.4 °F 16% 30.30 in 10.0 mi SSE 18.4 mph 25.3 mph N/A   Partly Cloudy
3:15 PM 78.8 °F 28.4 °F 16% 30.30 in 10.0 mi SSW 5.8 mph - N/A   Scattered Clouds
3:35 PM 75.2 °F 28.4 °F 18% 30.30 in 10.0 mi South 10.4 mph 21.9 mph N/A   Scattered Clouds
3:55 PM 77.0 °F 30.2 °F 18% 30.29 in 10.0 mi SSW 16.1 mph 25.3 mph N/A   Scattered Clouds
4:15 PM 80.6 °F 28.4 °F 15% 30.29 in 10.0 mi SSW 12.7 mph 23.0 mph N/A   Scattered Clouds
4:35 PM 78.8 °F 28.4 °F 16% 30.29 in 10.0 mi South 15.0 mph 21.9 mph N/A   Scattered Clouds
4:55 PM 77.0 °F 28.4 °F 17% 30.29 in 10.0 mi South 13.8 mph 23.0 mph N/A   Partly Cloudy
5:15 PM 77.0 °F 28.4 °F 17% 30.29 in 10.0 mi South 12.7 mph - N/A   Clear
5:35 PM 77.0 °F 30.2 °F 18% 30.29 in 10.0 mi SSW 8.1 mph 18.4 mph N/A   Clear
5:55 PM 73.4 °F 28.4 °F 19% 30.29 in 10.0 mi SSW 10.4 mph - N/A   Clear
6:15 PM 73.4 °F 30.2 °F 20% 30.30 in 10.0 mi South 13.8 mph 20.7 mph N/A   Partly Cloudy
6:35 PM 73.4 °F 28.4 °F 19% 30.30 in 10.0 mi South 9.2 mph 17.3 mph N/A   Clear
6:55 PM 73.4 °F 28.4 °F 19% 30.30 in 10.0 mi South 11.5 mph - N/A   Clear
7:15 PM 71.6 °F 30.2 °F 22% 30.30 in 10.0 mi South 11.5 mph 16.1 mph N/A   Clear
7:35 PM 69.8 °F 30.2 °F 23% 30.30 in 10.0 mi South 8.1 mph - N/A   Clear
7:55 PM 68.0 °F 30.2 °F 24% 30.31 in 10.0 mi SSW 6.9 mph - N/A   Clear
8:15 PM 66.2 °F 30.2 °F 26% 30.31 in 10.0 mi SSW 6.9 mph - N/A   Clear
8:35 PM 66.2 °F 30.2 °F 26% 30.32 in 10.0 mi SSW 6.9 mph - N/A   Clear
8:55 PM 64.4 °F 32.0 °F 30% 30.33 in 10.0 mi SSW 6.9 mph - N/A   Clear
9:15 PM 64.4 °F 32.0 °F 30% 30.33 in 10.0 mi SSW 6.9 mph - N/A   Clear
9:35 PM 60.8 °F 33.8 °F 36% 30.34 in 10.0 mi SSE 3.5 mph - N/A   Clear
9:55 PM 59.0 °F 32.0 °F 36% 30.34 in 10.0 mi SSE 5.8 mph - N/A   Clear
10:15 PM 59.0 °F 32.0 °F 36% 30.33 in 10.0 mi SSE 6.9 mph - N/A   Clear
10:35 PM 57.2 °F 33.8 °F 41% 30.34 in 10.0 mi SSE 6.9 mph - N/A   Clear
10:55 PM 55.4 °F 33.8 °F 44% 30.34 in 10.0 mi SSE 9.2 mph - N/A   Clear
11:15 PM 57.2 °F 33.8 °F 41% 30.34 in 10.0 mi SSE 8.1 mph - N/A   Clear
11:35 PM 55.4 °F 33.8 °F 44% 30.34 in 10.0 mi SSE 9.2 mph - N/A   Clear
11:55 PM 55.4 °F 33.8 °F 44% 30.34 in 10.0 mi SSE 8.1 mph - N/A   Clear